Mount Shasta, CA

6:00 PM PST on November 18, 2017 (GMT -0800)
Mount Shasta

Weather History for KMHS - February, 2012

Change the Weather History Date:

Monday, February 20, 2012

  Actual Average Record
Temperature  
Mean Temperature 36 °F 39 °F  
Max Temperature 40 °F 49 °F 70 °F (1988)
Min Temperature 32 °F 28 °F 12 °F (1918)
Degree Days  
Heating Degree Days 29 26  
Month to date heating degree days 515 545  
Since 1 July heating degree days 3506 3771  
Cooling Degree Days 0 0  
Month to date cooling degree days 0 0  
Year to date cooling degree days 0 0  
Moisture  
Dew Point 30 °F    
Average Humidity 81    
Maximum Humidity 92    
Minimum Humidity 56    
Precipitation  
Precipitation T in 0.28 in 2.40 in (1914)
Month to date precipitation 0.93 5.06  
Year to date precipitation 6.30 12.12  
Sea Level Pressure  
Sea Level Pressure 30.17 in    
Wind  
Wind Speed 1 mph (ESE)    
Max Wind Speed 8 mph    
Max Gust Speed 15 mph    
Visibility 9 miles    
Events Snow    
T = Trace of Precipitation, MM = Missing Value Source: NWS Daily Summary

Daily Weather History Graph

Daily Weather History Graph

Search for Another Location

Airport or City:

Trip Planner

Search our weather history database for the weather conditions in past years. The results will help you decide how hot, cold, wet, or windy it might be!

Date:

Astronomy

Feb. 20, 2012 Rise Set
Actual Time 6:57 AM PST 5:48 PM PST
Civil Twilight 6:29 AM PST 6:17 PM PST
Nautical Twilight 5:57 AM PST 6:49 PM PST
Astronomical Twilight 5:25 AM PST 7:21 PM PST
Moon 5:57 AM PST (2/20) 4:59 PM PST (2/20)
Length of Visible Light 11h 47m
Length of Day
10h 51m
Waning Crescent, 1% of the Moon is Illuminated
Feb 20
Waning Crescent
Feb 21
New
Feb 29
First Quarter
Mar 8
Full
Mar 14
Last Quarter

Hourly Weather History & Observations

Time (PST) Temp. Windchill Dew Point Humidity Pressure Visibility Wind Dir Wind Speed Gust Speed Precip Events Conditions
12:14 AM 35.6 °F 32.8 °F 23.0 °F 60% 30.02 in 2.5 mi SE 3.5 mph - 0.00 in Snow Light Snow
12:31 AM 33.8 °F 29.6 °F 24.8 °F 70% 30.02 in 4.0 mi East 4.6 mph - 0.00 in Snow Light Snow
12:53 AM 33.8 °F 30.8 °F 26.6 °F 75% 30.02 in 9.0 mi East 3.5 mph - 0.00 in   Overcast
12:56 AM 34.0 °F 31.0 °F 26.1 °F 73% 30.09 in 9.0 mi Variable 3.5 mph - 0.00 in   Overcast
1:56 AM 33.1 °F - 26.1 °F 75% 30.09 in 10.0 mi Calm Calm - N/A   Scattered Clouds
2:56 AM 34.0 °F 31.0 °F 27.0 °F 75% 30.09 in 10.0 mi Variable 3.5 mph - N/A   Overcast
3:56 AM 33.1 °F - 27.0 °F 78% 30.09 in 10.0 mi Calm Calm - N/A   Overcast
4:56 AM 33.1 °F 30.0 °F 27.0 °F 78% 30.11 in 10.0 mi Variable 3.5 mph - N/A   Overcast
5:56 AM 32.0 °F - 27.0 °F 82% 30.13 in 10.0 mi Calm Calm - N/A   Mostly Cloudy
6:23 AM 33.8 °F - 28.4 °F 81% 30.05 in 10.0 mi Calm Calm - N/A   Overcast
6:31 AM 33.8 °F - 28.4 °F 81% 30.06 in 10.0 mi Calm Calm - N/A   Overcast
6:56 AM 33.1 °F 30.0 °F 28.9 °F 85% 30.16 in 10.0 mi Variable 3.5 mph - N/A   Overcast
7:56 AM 33.1 °F - 28.9 °F 85% 30.18 in 10.0 mi Calm Calm - N/A   Overcast
8:56 AM 34.0 °F - 30.0 °F 85% 30.20 in 10.0 mi Calm Calm - N/A   Overcast
9:56 AM 34.0 °F - 30.0 °F 85% 30.23 in 10.0 mi Calm Calm - N/A   Overcast
10:56 AM 36.0 °F - 30.9 °F 82% 30.24 in 10.0 mi Calm Calm - N/A   Overcast
11:20 AM 35.6 °F 32.8 °F 30.2 °F 81% 30.15 in 10.0 mi SE 3.5 mph - N/A   Overcast
11:56 AM 36.0 °F 32.1 °F 30.9 °F 82% 30.24 in 10.0 mi Variable 4.6 mph - N/A   Overcast
12:56 PM 37.9 °F - 30.9 °F 76% 30.22 in 10.0 mi Calm Calm - N/A   Overcast
1:54 PM 37.4 °F 34.9 °F 32.0 °F 81% 30.13 in 10.0 mi Variable 3.5 mph - N/A   Overcast
1:56 PM 37.9 °F 35.5 °F 32.0 °F 79% 30.22 in 10.0 mi Variable 3.5 mph - N/A   Overcast
2:40 PM 37.4 °F 34.9 °F 30.2 °F 75% 30.13 in 10.0 mi Variable 3.5 mph - N/A   Overcast
2:56 PM 37.9 °F - 30.9 °F 76% 30.23 in 10.0 mi Calm Calm - N/A   Overcast
3:56 PM 37.9 °F - 32.0 °F 79% 30.24 in 10.0 mi Calm Calm - N/A   Overcast
4:56 PM 37.9 °F - 30.9 °F 76% 30.23 in 10.0 mi Calm Calm - N/A   Overcast
5:29 PM 37.4 °F - 30.2 °F 75% 30.15 in 10.0 mi Calm Calm - N/A   Overcast
5:47 PM 37.4 °F - 32.0 °F 81% 30.15 in 10.0 mi Calm Calm - N/A   Overcast
5:56 PM 37.0 °F - 30.9 °F 79% 30.25 in 10.0 mi Calm Calm - N/A   Overcast
6:56 PM 36.0 °F - 32.0 °F 86% 30.26 in 10.0 mi Calm Calm - 0.00 in   Overcast
7:56 PM 36.0 °F - 33.1 °F 89% 30.27 in 8.0 mi Calm Calm - 0.00 in   Overcast
8:48 PM 35.6 °F - 33.8 °F 93% 30.18 in 10.0 mi Calm Calm - 0.00 in   Overcast
8:56 PM 36.0 °F - 33.1 °F 89% 30.29 in 8.0 mi Calm Calm - 0.00 in   Overcast
9:56 PM 36.0 °F - 33.1 °F 89% 30.29 in 7.0 mi Calm Calm - N/A   Overcast
10:22 PM 35.6 °F - 33.8 °F 93% 30.18 in 7.0 mi Calm Calm - N/A   Overcast
10:56 PM 36.0 °F - 33.1 °F 89% 30.30 in 6.0 mi Calm Calm - N/A   Overcast
11:29 PM 35.6 °F - 33.8 °F 93% 30.20 in 6.0 mi Calm Calm - N/A   Overcast
11:56 PM 36.0 °F - 33.1 °F 89% 30.31 in 9.0 mi Calm Calm - N/A   Overcast